Columbus, OH

3:57 AM EST on January 23, 2017 (GMT -0500)
Port Columbus International

Weather History for KCMH - December, 2013

Change the Weather History Date:

Thursday, December 26, 2013

  Actual Average Record
Temperature  
Mean Temperature 35 °F 31 °F  
Max Temperature 39 °F 37 °F 69 °F (2016)
Min Temperature 30 °F 24 °F -5 °F (1983)
Degree Days  
Heating Degree Days 30 34  
Month to date heating degree days 789 804  
Since 1 July heating degree days 1851 1818  
Cooling Degree Days 0 0  
Month to date cooling degree days 0 0  
Year to date cooling degree days 1179 1024  
Moisture  
Dew Point 20 °F    
Average Humidity 55    
Maximum Humidity 69    
Minimum Humidity 40    
Precipitation  
Precipitation T in 0.10 in 1.37 in (1895)
Month to date precipitation 3.96 2.50  
Year to date precipitation 41.21 38.84  
Snow  
Snow T in 0.20 in 5.00 in (1933)
Month to date snowfall 12.5 3.9  
Since 1 July snowfall 17.2 5.0  
Snow Depth 0.00 in    
Sea Level Pressure  
Sea Level Pressure 30.27 in    
Wind  
Wind Speed 12 mph (WSW)    
Max Wind Speed 23 mph    
Max Gust Speed 29 mph    
Visibility 10 miles    
Events Snow    
T = Trace of Precipitation, MM = Missing Value Source: NWS Daily Summary

Daily Weather History Graph

Daily Weather History Graph

Search for Another Location

Airport or City:

Trip Planner

Search our weather history database for the weather conditions in past years. The results will help you decide how hot, cold, wet, or windy it might be!

Date:

Astronomy

Dec. 26, 2013 Rise Set
Actual Time 7:52 AM EST 5:12 PM EST
Civil Twilight 7:21 AM EST 5:43 PM EST
Nautical Twilight 6:47 AM EST 6:17 PM EST
Astronomical Twilight 6:14 AM EST 6:50 PM EST
Moon 1:19 AM EST (12/26) 12:47 PM EST (12/26)
Length of Visible Light 10h 21m
Length of Day
9h 20m
Last Quarter, 38% of the Moon is Illuminated
Dec 26
Last Quarter
Jan 1
New
Jan 7
First Quarter
Jan 15
Full
Jan 24
Last Quarter

Hourly Weather History & Observations

Time (EST) Temp. Windchill Dew Point Humidity Pressure Visibility Wind Dir Wind Speed Gust Speed Precip Events Conditions
12:51 AM 34.0 °F 27.2 °F 23.0 °F 64% 30.18 in 10.0 mi SW 8.1 mph - N/A   Overcast
1:51 AM 34.0 °F 28.0 °F 23.0 °F 64% 30.17 in 10.0 mi SW 6.9 mph - N/A   Overcast
2:40 AM 33.8 °F 25.3 °F 21.2 °F 60% 30.14 in 10.0 mi SW 11.5 mph - N/A   Overcast
2:51 AM 34.0 °F 25.5 °F 21.9 °F 61% 30.17 in 10.0 mi WSW 11.5 mph - N/A   Overcast
3:51 AM 33.1 °F 21.9 °F 24.1 °F 70% 30.17 in 10.0 mi West 18.4 mph 24.2 mph N/A   Overcast
4:51 AM 32.0 °F 22.5 °F 23.0 °F 69% 30.17 in 10.0 mi WSW 12.7 mph 23.0 mph N/A   Overcast
5:51 AM 32.0 °F 23.0 °F 23.0 °F 69% 30.18 in 10.0 mi SW 11.5 mph - N/A   Overcast
6:51 AM 33.1 °F 22.2 °F 24.1 °F 70% 30.20 in 10.0 mi WSW 17.3 mph 24.2 mph N/A   Overcast
7:51 AM 33.1 °F 21.2 °F 23.0 °F 66% 30.23 in 8.0 mi WSW 20.7 mph 28.8 mph 0.00 in Snow Light Snow
8:02 AM 33.8 °F 22.8 °F 21.2 °F 60% 30.21 in 9.0 mi West 18.4 mph 26.5 mph 0.00 in   Overcast
8:51 AM 33.1 °F 22.6 °F 19.9 °F 59% 30.27 in 10.0 mi West 16.1 mph - 0.00 in   Scattered Clouds
9:51 AM 33.1 °F 22.6 °F 18.0 °F 54% 30.29 in 10.0 mi West 16.1 mph - N/A   Scattered Clouds
10:51 AM 34.0 °F 23.8 °F 18.0 °F 52% 30.31 in 10.0 mi WSW 16.1 mph 23.0 mph N/A   Partly Cloudy
11:51 AM 35.1 °F 24.5 °F 16.0 °F 46% 30.31 in 10.0 mi WSW 18.4 mph 25.3 mph N/A   Scattered Clouds
12:51 PM 37.0 °F 27.7 °F 16.0 °F 42% 30.30 in 10.0 mi WSW 16.1 mph 21.9 mph N/A   Clear
1:51 PM 37.9 °F 30.0 °F 16.0 °F 41% 30.30 in 10.0 mi WSW 12.7 mph 23.0 mph N/A   Clear
2:51 PM 37.9 °F 28.5 °F 16.0 °F 41% 30.30 in 10.0 mi West 17.3 mph 24.2 mph N/A   Clear
3:51 PM 37.9 °F 29.6 °F 17.1 °F 43% 30.32 in 10.0 mi West 13.8 mph - N/A   Partly Cloudy
4:51 PM 37.0 °F 29.3 °F 17.1 °F 44% 30.33 in 10.0 mi West 11.5 mph - N/A   Mostly Cloudy
5:51 PM 36.0 °F 28.0 °F 19.0 °F 50% 30.34 in 10.0 mi West 11.5 mph - N/A   Mostly Cloudy
6:51 PM 34.0 °F 29.8 °F 19.9 °F 56% 30.35 in 10.0 mi West 4.6 mph - N/A   Mostly Cloudy
7:51 PM 34.0 °F 29.8 °F 19.0 °F 54% 30.36 in 10.0 mi West 4.6 mph - N/A   Scattered Clouds
8:51 PM 32.0 °F 28.7 °F 19.9 °F 61% 30.35 in 10.0 mi South 3.5 mph - N/A   Mostly Cloudy
9:51 PM 30.9 °F 26.2 °F 19.9 °F 64% 30.35 in 10.0 mi SE 4.6 mph - N/A   Mostly Cloudy
10:51 PM 30.9 °F 27.5 °F 19.9 °F 64% 30.35 in 10.0 mi South 3.5 mph - N/A   Mostly Cloudy
11:51 PM 32.0 °F 26.4 °F 19.9 °F 61% 30.35 in 10.0 mi South 5.8 mph - N/A   Overcast